www.pogodaiklimat.ru

Погода и климат >> Архив погоды >> Канада >> Henderickson Auto


ПОГОДА в Henderickson Auto

  • Прогноз погоды в Henderickson Auto
  • Монитор погоды в Henderickson Auto
  • Климат города

АРХИВ ПОГОДЫ в Henderickson Auto

Время (UTC), дата Ветер
(напр.,м/с)
 
Видим.   Явления Облачность Т
(С)
Тd
(С)
f
(%)
Тe
(С)
Тes
(С)
Комфортность P
(гПа)
Po
(гПа)
Тmin
(С)
Tmax
(С)
R
(мм)
R24
(мм)
S
(см)
06 17.08 З 1 н/о н/о +4.2 +2.7 90 +4 +4 1015.7 852.7 -0.5 +16.1 0
09 17.08 З 2 н/о н/о +9.8 +3.1 63 +8 +8 1014.0 852.4
12 17.08 З 2 н/о н/о +11.0 +2.6 56 +10 +10 1013.9 852.7 +3.1 +16.1
15 17.08 З 3 н/о н/о +14.1 +3.1 47 +13 +13 1014.8 853.4
18 17.08 З 4 н/о н/о +18.0 +1.3 33 +18 +18 1015.2 853.1 +3.1 +18.4
21 17.08 З 4 н/о н/о +19.9 +2.3 31 +20 +20 1013.3 852.6
00 18.08 З 2 н/о н/о +20.2 +2.0 30 +21 +21 комфорт 1012.9 852.5 +3.1 +20.3
03 18.08 СЗ 1 н/о н/о +12.7 +6.6 66 +13 +13 1014.0 852.8
06 18.08 З 1 н/о н/о +8.4 +5.6 83 +9 +9 1013.3 852.1 +3.1 +20.5 19
09 18.08 СЗ 1 н/о н/о +3.4 +2.0 91 +3 +3 1012.0 850.5
12 18.08 В 1 н/о {осадки} н/о +3.0 +2.2 94 +3 +3 1009.9 848.8 +3.0 +20.5 0.3
15 18.08 СЗ 1 н/о н/о +7.6 +6.2 91 +7 +7 1010.7 849.0 0.2
18 18.08 ЮЗ 4 н/о {осадки} н/о +18.1 +2.2 34 +18 +18 1008.6 848.2 +2.3 +18.9 0.2
21 18.08 З 4 н/о н/о +14.4 +4.6 52 +13 +13 1010.5 848.4
00 19.08 З 6 н/о н/о +6.8 +4.8 87 +2 +2 1014.2 850.3 +2.3 +18.9 0.3
03 19.08 З 4 н/о н/о +6.3 +1.0 69 +3 +3 1013.5 850.3 0.5
06 19.08 СЗ 2 н/о н/о +4.0 +1.0 81 +1 +1 1013.6 851.7 +1.9 +18.9 0.5 20
09 19.08 СЗ 3 н/о н/о +5.7 -1.7 59 +3 +3 1013.3 851.1
12 19.08 З 5 н/о н/о +6.1 -1.2 59 +2 +2 1014.6 851.1 +1.9 +18.9
15 19.08 З 5 н/о н/о +8.6 -1.6 49 +6 +6 1015.6 852.3
18 19.08 З 4 н/о н/о +12.0 -1.1 40 +10 +10 1016.3 853.0 +1.9 +12.0
21 19.08 З 6 н/о н/о +11.6 -1.7 40 +9 +9 1016.5 853.4
00 20.08 З 4 н/о н/о +12.3 -1.5 38 +11 +11 1016.7 853.7 +3.9 +14.3
03 20.08 З 3 н/о н/о +9.3 -1.3 47 +8 +8 1016.2 853.2
06 20.08 З 2 н/о н/о +9.0 -0.3 52 +8 +8 1015.2 852.9 +3.9 +14.3 0
09 20.08 З 2 н/о н/о +7.6 +0.9 62 +6 +6 1015.2 852.6
12 20.08 З 1 н/о н/о +4.5 +1.9 83 +3 +3 1015.5 852.5 +3.5 +14.3
15 20.08 СЗ 2 н/о {осадки} н/о +6.4 +4.8 89 +4 +4 1017.1 853.6 0.5
18 20.08 ЮЗ 3 н/о {осадки} н/о +10.9 +3.1 59 +9 +9 1015.9 853.3 +3.5 +10.9 1
21 20.08 З 4 н/о н/о +13.0 +3.1 51 +11 +11 1016.0 853.5
00 21.08 З 4 н/о н/о +12.2 +2.3 51 +11 +11 1017.8 854.4 +3.5 +13.9
03 21.08 З 2 н/о н/о +10.2 +3.0 61 +9 +9 1019.0 855.4
06 21.08 С 1 н/о н/о +6.9 +4.4 84 +6 +6 1019.6 856.1 +3.5 +13.9 0
09 21.08 штиль 0 н/о н/о +6.5 +5.0 90 +6 +6 1019.4 856.2
12 21.08 штиль 0 н/о н/о +6.6 +5.2 91 +6 +6 1019.5 856.1 +6.1 +13.9
15 21.08 штиль 0 н/о н/о +8.4 +6.3 87 +8 +8 1020.0 856.5
18 21.08 СЗ 1 н/о н/о +12.6 +7.0 69 +14 +14 1019.7 856.4 +6.1 +12.8
21 21.08 З 4 н/о н/о +16.9 +7.1 52 +17 +17 1019.5 856.9
00 22.08 З 1 н/о н/о +15.1 +9.9 71 +16 +16 1019.7 856.8 +6.1 +17.4
03 22.08 З 2 н/о н/о +14.1 +8.2 68 +14 +14 1019.9 857.1 0.2
06 22.08 ЮВ 1 н/о н/о +10.1 +7.4 83 +10 +10 1020.3 857.4 +6.1 +17.4 0.2
09 22.08 штиль 0 н/о н/о +5.4 +4.4 93 +4 +4 1020.4 857.4
12 22.08 З 2 н/о н/о +3.0 +2.7 98 0 0 1021.5 857.7 +2.1 +17.4
15 22.08 В 1 н/о н/о +10.7 +8.0 83 +11 +11 1019.7 857.3
18 22.08 СЗ 1 н/о н/о +20.7 +8.2 45 +23 +23 комфорт 1017.4 856.3 +1.0 +20.9
21 22.08 В 2 н/о н/о +22.5 +6.3 35 +23 +23 комфорт 1016.7 855.2
00 23.08 ЮВ 2 н/о н/о +21.9 +9.0 44 +23 +23 комфорт 1015.8 854.0 +1.0 +24.1
03 23.08 З 1 н/о н/о +14.4 +11.3 82 +15 +15 1014.0 852.5
06 23.08 З 1 н/о н/о +8.5 +7.4 93 +8 +8 1012.4 851.8 +1.0 +24.1
09 23.08 СЗ 1 н/о н/о +8.1 +7.3 95 +7 +7 1013.1 852.6
12 23.08 З 1 н/о н/о +5.0 +4.6 97 +5 +5 1013.4 852.3 +4.8 +24.1
15 23.08 ЮЗ 1 н/о н/о +10.4 +10.1 98 +11 +11 1014.3 852.7 0.2
18 23.08 СЗ 2 н/о {осадки} н/о +13.8 +11.9 88 +13 +13 1014.9 852.8 +4.8 +18.4 0.9
21 23.08 В 1 н/о н/о +17.4 +11.0 66 +19 +19 1013.3 852.0 3
00 24.08 ЮВ 3 н/о {осадки} н/о +17.5 +9.9 61 +18 +18 1012.7 851.0 +4.8 +18.4 3
03 24.08 ЮВ 1 н/о н/о +12.8 +10.7 87 +14 +14 1011.0 849.7

 

Местоположение метеостанции Henderickson Auto (Канада): широта 53.78 долгота -118.40 высота над уровнем моря 1432 м.

В архиве по умолчанию представлена погода в Henderickson Auto за последнюю неделю. Архивные данные за месяц целиком и за предыдущие месяцы, начиная с января 2011 года, Вы можете получить, выбрав интересующий диапазон дат из раскрывающегося списка и нажав кнопку "Ввод!".

Внимание! Время в таблицах - всемирное. Для получения местного времени необходимо прибавить поправку, которая в Henderickson Auto равна -7 ч.

Смотрите также архив погоды в соседних городах и на ближайших метеорологических станциях:

Погода в Willow Creek 1 (Канада) (45 км)
Погода в Jasper Warden (Канада) (98 км)
Погода в Jasper (Канада) (104 км)
Погода в Edson AB (Канада) (134 км)
Погода в Grande Prairie (Канада) (158 км)
Погода в Valley View Agdm (Канада) (166 км)
Погода в Beaverlodge Cda (Канада) (171 км)
Погода в Teepee Creek Agcm (Канада) (175 км)
Погода в Whitecourt (Канада) (181 км)
Погода в Whitecourt Alta (Канада) (181 км)

Пояснения к столбцам:

Ветер - указаны скорость ветра в м/с - средняя за 10 мин, порывы в срок и между сроками (в фигурных скобках) и направление, откуда дует ветер: С - северный, СВ - северо-восточный, В - восточный, ЮВ - юго-восточный, Ю - южный, ЮЗ - юго-западный, З - западный, СЗ - северо-западный.
Видимость - горизонтальная дальность видимости в метрах или километрах. При видимости от 1 до 10 км при отсутствии осадков обычно наблюдается дымка, при ухудшении видимости до 1 км и менее - туман. В сухую погоду видимость может ухудшаться дымом, пылью или мглою.
Явления - указаны атмосферные явления, наблюдавшиеся в срок или в последний час перед сроком; фигурными скобками обозначены явления, наблюдавшиеся между сроками (за 1-3 часа до срока); квадратными скобками обозначены град или гололедные отложения с указанием их диаметра в мм.
Облачность - указаны через наклонную черту общая и нижняя облачность в баллах и высота нижней границы облаков в метрах; квадратными скобками обозначены формы облаков: Ci - перистые, Cs - перисто-слоистые, Cc - перисто-кучевые, Ac - высококучевые, As - высокослоистые, Sc - слоисто-кучевые, Ns - слоисто-дождевые, Cu - кучевые, Cb - кучево-дождевые. Подробнее классификацию облаков см. в Атласе облаков (PDF).
T - Температура воздуха - температура, измеренная на высоте 2 м над землей.
Td - Температура точки росы - температура, при понижении до которой содержащийся в воздухе водяной пар достигнет насыщения.
f - Относительная влажность воздуха - влажноcть воздуха, измеренная на высоте 2 м над землей.
Te - Эффективная температура - температура, которую ощущает одетый по сезону человек в тени. Характеристика душности погоды. При расчете учитывается влияние влажности воздуха и скорости ветра на теплоощущения человека.
Tes - Эффективная температура на солнце - температура, которую ощущает человек, с поправкой на солнечный нагрев. Характеристика знойности погоды. Зависит от высоты солнца над горизонтом, облачности и скорости ветра. Ночью, в пасмурную погоду, а также при ветре 12 м/с и более поправка равна нулю.
P - Атмосферное давление - приведенное к уровню моря атмосферное давление.
Po - Атмосферное давление - измеренное на уровне метеостанции атмосферное давление.
Tmin - Минимальная температура - минимум температуры воздуха на высоте 2 м над землей.
Tmax - Максимальная температура - максимум температуры воздуха на высоте 2 м над землей.
R - Количество осадков - Количество выпавших осадков за период времени, мм. При наведении курсора мыши на число - период времени, за который выпало указанное количество осадков.
R24 - Количество осадков - Количество выпавших осадков за 24 часа, мм.
S - Снежный покров - Высота снежного покрова, см. При наведении курсора мыши на число - состояние снежного покрова и степень покрытия местности в баллах.